Year,Month,Day,Hour,Minute,Value (Times are PST for temperature in C)
2013,01,14,00,00,1.60
2013,01,14,00,01,1.60
2013,01,14,00,02,1.60
2013,01,14,00,03,1.60
2013,01,14,00,04,1.60
2013,01,14,00,05,1.70
2013,01,14,00,06,1.70
2013,01,14,00,07,1.70
2013,01,14,00,08,1.70
2013,01,14,00,09,1.70
2013,01,14,00,10,1.70
2013,01,14,00,11,1.70
2013,01,14,00,12,1.70
2013,01,14,00,13,1.70
2013,01,14,00,14,1.70
2013,01,14,00,15,1.70
2013,01,14,00,16,1.70
2013,01,14,00,17,1.70
2013,01,14,00,18,1.70
2013,01,14,00,19,1.70
2013,01,14,00,20,1.70
2013,01,14,00,21,1.70
2013,01,14,00,22,1.70
2013,01,14,00,23,1.70
2013,01,14,00,24,1.70
2013,01,14,00,25,1.70
2013,01,14,00,26,1.70
2013,01,14,00,27,1.70
2013,01,14,00,28,1.70
2013,01,14,00,29,1.70
2013,01,14,00,30,1.70
2013,01,14,00,31,1.70
2013,01,14,00,32,1.70
2013,01,14,00,33,1.70
2013,01,14,00,34,1.70
2013,01,14,00,35,1.70
2013,01,14,00,36,1.70
2013,01,14,00,37,1.70
2013,01,14,00,38,1.70
2013,01,14,00,39,1.70
2013,01,14,00,40,1.70
2013,01,14,00,41,1.70
2013,01,14,00,42,1.70
2013,01,14,00,43,1.70
2013,01,14,00,44,1.70
2013,01,14,00,45,1.70
2013,01,14,00,46,1.70
2013,01,14,00,47,1.70
2013,01,14,00,48,1.70
2013,01,14,00,49,1.70
2013,01,14,00,50,1.70
2013,01,14,00,51,1.70
2013,01,14,00,52,1.60
2013,01,14,00,53,1.60
2013,01,14,00,54,1.60
2013,01,14,00,55,1.60
2013,01,14,00,56,1.60
2013,01,14,00,57,1.60
2013,01,14,00,58,1.60
2013,01,14,00,59,1.60
2013,01,14,01,00,1.60
2013,01,14,01,01,1.60
2013,01,14,01,02,1.60
2013,01,14,01,03,1.60
2013,01,14,01,04,1.60
2013,01,14,01,05,1.60
2013,01,14,01,06,1.60
2013,01,14,01,07,1.60
2013,01,14,01,08,1.60
2013,01,14,01,09,1.60
2013,01,14,01,10,1.60
2013,01,14,01,11,1.60
2013,01,14,01,12,1.60
2013,01,14,01,13,1.60
2013,01,14,01,14,1.60
2013,01,14,01,15,1.60
2013,01,14,01,16,1.60
2013,01,14,01,17,1.60
2013,01,14,01,18,1.60
2013,01,14,01,19,1.60
2013,01,14,01,20,1.50
2013,01,14,01,21,1.50
2013,01,14,01,22,1.50
2013,01,14,01,23,1.50
2013,01,14,01,24,1.50
2013,01,14,01,25,1.50
2013,01,14,01,26,1.50
2013,01,14,01,27,1.50
2013,01,14,01,28,1.50
2013,01,14,01,29,1.50
2013,01,14,01,30,1.40
2013,01,14,01,31,1.40
2013,01,14,01,32,1.40
2013,01,14,01,33,1.40
2013,01,14,01,34,1.40
2013,01,14,01,35,1.40
2013,01,14,01,36,1.50
2013,01,14,01,37,1.50
2013,01,14,01,38,1.50
2013,01,14,01,39,1.50
2013,01,14,01,40,1.50
2013,01,14,01,41,1.50
2013,01,14,01,42,1.50
2013,01,14,01,43,1.50
2013,01,14,01,44,1.50
2013,01,14,01,45,1.50
2013,01,14,01,46,1.50
2013,01,14,01,47,1.50
2013,01,14,01,48,1.50
2013,01,14,01,49,1.50
2013,01,14,01,50,1.50
2013,01,14,01,51,1.50
2013,01,14,01,52,1.50
2013,01,14,01,53,1.50
2013,01,14,01,54,1.50
2013,01,14,01,55,1.60
2013,01,14,01,56,1.60
2013,01,14,01,57,1.60
2013,01,14,01,58,1.60
2013,01,14,01,59,1.60
2013,01,14,02,00,1.50
2013,01,14,02,01,1.50
2013,01,14,02,02,1.50
2013,01,14,02,03,1.50
2013,01,14,02,04,1.50
2013,01,14,02,05,1.50
2013,01,14,02,06,1.50
2013,01,14,02,07,1.40
2013,01,14,02,08,1.40
2013,01,14,02,09,1.40
2013,01,14,02,10,1.40
2013,01,14,02,11,1.40
2013,01,14,02,12,1.40
2013,01,14,02,13,1.40
2013,01,14,02,14,1.50
2013,01,14,02,15,1.50
2013,01,14,02,16,1.50
2013,01,14,02,17,1.50
2013,01,14,02,18,1.50
2013,01,14,02,19,1.50
2013,01,14,02,20,1.50
2013,01,14,02,21,1.50
2013,01,14,02,22,1.50
2013,01,14,02,23,1.50
2013,01,14,02,24,1.50
2013,01,14,02,25,1.60
2013,01,14,02,26,1.60
2013,01,14,02,27,1.60
2013,01,14,02,28,1.60
2013,01,14,02,29,1.60
2013,01,14,02,30,1.60
2013,01,14,02,31,1.60
2013,01,14,02,32,1.60
2013,01,14,02,33,1.60
2013,01,14,02,34,1.60
2013,01,14,02,35,1.60
2013,01,14,02,36,1.60
2013,01,14,02,37,1.60
2013,01,14,02,38,1.60
2013,01,14,02,39,1.60
2013,01,14,02,40,1.60
2013,01,14,02,41,1.60
2013,01,14,02,42,1.60
2013,01,14,02,43,1.60
2013,01,14,02,44,1.50
2013,01,14,02,45,1.50
2013,01,14,02,46,1.50
2013,01,14,02,47,1.40
2013,01,14,02,48,1.40
2013,01,14,02,49,1.40
2013,01,14,02,50,1.30
2013,01,14,02,51,1.30
2013,01,14,02,52,1.30
2013,01,14,02,53,1.30
2013,01,14,02,54,1.30
2013,01,14,02,55,1.30
2013,01,14,02,56,1.20
2013,01,14,02,57,1.20
2013,01,14,02,58,1.20
2013,01,14,02,59,1.20
2013,01,14,03,00,1.20
2013,01,14,03,01,1.20
2013,01,14,03,02,1.20
2013,01,14,03,03,1.20
2013,01,14,03,04,1.20
2013,01,14,03,05,1.20
2013,01,14,03,06,1.20
2013,01,14,03,07,1.20
2013,01,14,03,08,1.20
2013,01,14,03,09,1.20
2013,01,14,03,10,1.20
2013,01,14,03,11,1.20
2013,01,14,03,12,1.20
2013,01,14,03,13,1.20
2013,01,14,03,14,1.20
2013,01,14,03,15,1.20
2013,01,14,03,16,1.20
2013,01,14,03,17,1.20
2013,01,14,03,18,1.20
2013,01,14,03,19,1.30
2013,01,14,03,20,1.30
2013,01,14,03,21,1.30
2013,01,14,03,22,1.30
2013,01,14,03,23,1.30
2013,01,14,03,24,1.30
2013,01,14,03,25,1.30
2013,01,14,03,26,1.30
2013,01,14,03,27,1.30
2013,01,14,03,28,1.30
2013,01,14,03,29,1.30
2013,01,14,03,30,1.30
2013,01,14,03,31,1.30
2013,01,14,03,32,1.40
2013,01,14,03,33,1.40
2013,01,14,03,34,1.40
2013,01,14,03,35,1.40
2013,01,14,03,36,1.40
2013,01,14,03,37,1.50
2013,01,14,03,38,1.50
2013,01,14,03,39,1.50
2013,01,14,03,40,1.50
2013,01,14,03,41,1.50
2013,01,14,03,42,1.60
2013,01,14,03,43,1.60
2013,01,14,03,44,1.60
2013,01,14,03,45,1.60
2013,01,14,03,46,1.60
2013,01,14,03,47,1.60
2013,01,14,03,48,1.60
2013,01,14,03,49,1.60
2013,01,14,03,50,1.60
2013,01,14,03,51,1.70
2013,01,14,03,52,1.70
2013,01,14,03,53,1.70
2013,01,14,03,54,1.70
2013,01,14,03,55,1.70
2013,01,14,03,56,1.70
2013,01,14,03,57,1.60
2013,01,14,03,58,1.60
2013,01,14,03,59,1.60
2013,01,14,04,00,1.60
2013,01,14,04,01,1.60
2013,01,14,04,02,1.60
2013,01,14,04,03,1.60
2013,01,14,04,04,1.60
2013,01,14,04,05,1.60
2013,01,14,04,06,1.60
2013,01,14,04,07,1.70
2013,01,14,04,08,1.70
2013,01,14,04,09,1.70
2013,01,14,04,10,1.70
2013,01,14,04,11,1.70
2013,01,14,04,12,1.70
2013,01,14,04,13,1.70
2013,01,14,04,14,1.70
2013,01,14,04,15,1.70
2013,01,14,04,16,1.70
2013,01,14,04,17,1.70
2013,01,14,04,18,1.60
2013,01,14,04,19,1.60
2013,01,14,04,20,1.60
2013,01,14,04,21,1.50
2013,01,14,04,22,1.50
2013,01,14,04,23,1.50
2013,01,14,04,24,1.40
2013,01,14,04,25,1.40
2013,01,14,04,26,1.40
2013,01,14,04,27,1.40
2013,01,14,04,28,1.30
2013,01,14,04,29,1.30
2013,01,14,04,30,1.30
2013,01,14,04,31,1.30
2013,01,14,04,32,1.30
2013,01,14,04,33,1.30
2013,01,14,04,34,1.30
2013,01,14,04,35,1.30
2013,01,14,04,36,1.30
2013,01,14,04,37,1.30
2013,01,14,04,38,1.30
2013,01,14,04,39,1.30
2013,01,14,04,40,1.30
2013,01,14,04,41,1.40
2013,01,14,04,42,1.40
2013,01,14,04,43,1.40
2013,01,14,04,44,1.50
2013,01,14,04,45,1.50
2013,01,14,04,46,1.50
2013,01,14,04,47,1.50
2013,01,14,04,48,1.50
2013,01,14,04,49,1.50
2013,01,14,04,50,1.50
2013,01,14,04,51,1.50
2013,01,14,04,52,1.50
2013,01,14,04,53,1.50
2013,01,14,04,54,1.50
2013,01,14,04,55,1.50
2013,01,14,04,56,1.50
2013,01,14,04,57,1.50
2013,01,14,04,58,1.50
2013,01,14,04,59,1.40
2013,01,14,05,00,1.40
2013,01,14,05,01,1.30
2013,01,14,05,02,1.30
2013,01,14,05,03,1.30
2013,01,14,05,04,1.30
2013,01,14,05,05,1.30
2013,01,14,05,06,1.30
2013,01,14,05,07,1.30
2013,01,14,05,08,1.30
2013,01,14,05,09,1.30
2013,01,14,05,10,1.30
2013,01,14,05,11,1.30
2013,01,14,05,12,1.30
2013,01,14,05,13,1.30
2013,01,14,05,14,1.30
2013,01,14,05,15,1.30
2013,01,14,05,16,1.30
2013,01,14,05,17,1.30
2013,01,14,05,18,1.40
2013,01,14,05,19,1.40
2013,01,14,05,20,1.40
2013,01,14,05,21,1.40
2013,01,14,05,22,1.40
2013,01,14,05,23,1.50
2013,01,14,05,24,1.50
2013,01,14,05,25,1.50
2013,01,14,05,26,1.50
2013,01,14,05,27,1.50
2013,01,14,05,28,1.60
2013,01,14,05,29,1.60
2013,01,14,05,30,1.60
2013,01,14,05,31,1.70
2013,01,14,05,32,1.70
2013,01,14,05,33,1.70
2013,01,14,05,34,1.70
2013,01,14,05,35,1.70
2013,01,14,05,36,1.70
2013,01,14,05,37,1.70
2013,01,14,05,38,1.70
2013,01,14,05,39,1.70
2013,01,14,05,40,1.70
2013,01,14,05,41,1.70
2013,01,14,05,42,1.70
2013,01,14,05,43,1.70
2013,01,14,05,44,1.70
2013,01,14,05,45,1.70
2013,01,14,05,46,1.70
2013,01,14,05,47,1.70
2013,01,14,05,48,1.60
2013,01,14,05,49,1.60
2013,01,14,05,50,1.60
2013,01,14,05,51,1.60
2013,01,14,05,52,1.60
2013,01,14,05,53,1.50
2013,01,14,05,54,1.50
2013,01,14,05,55,1.50
2013,01,14,05,56,1.50
2013,01,14,05,57,1.60
2013,01,14,05,58,1.60
2013,01,14,05,59,1.60
2013,01,14,06,00,1.60
2013,01,14,06,01,1.60
2013,01,14,06,02,1.60
2013,01,14,06,03,1.60
2013,01,14,06,04,1.60
2013,01,14,06,05,1.60
2013,01,14,06,06,1.60
2013,01,14,06,07,1.60
2013,01,14,06,08,1.60
2013,01,14,06,09,1.60
2013,01,14,06,10,1.60
2013,01,14,06,11,1.60
2013,01,14,06,12,1.60
2013,01,14,06,13,1.60
2013,01,14,06,14,1.60
2013,01,14,06,15,1.60
2013,01,14,06,16,1.60
2013,01,14,06,17,1.70
2013,01,14,06,18,1.70
2013,01,14,06,19,1.70
2013,01,14,06,20,1.70
2013,01,14,06,21,1.70
2013,01,14,06,22,1.70
2013,01,14,06,23,1.70
2013,01,14,06,24,1.70
2013,01,14,06,25,1.70
2013,01,14,06,26,1.70
2013,01,14,06,27,1.70
2013,01,14,06,28,1.70
2013,01,14,06,29,1.70
2013,01,14,06,30,1.70
2013,01,14,06,31,1.70
2013,01,14,06,32,1.70
2013,01,14,06,33,1.70
2013,01,14,06,34,1.70
2013,01,14,06,35,1.70
2013,01,14,06,36,1.70
2013,01,14,06,37,1.70
2013,01,14,06,38,1.70
2013,01,14,06,39,1.70
2013,01,14,06,40,1.70
2013,01,14,06,41,1.70
2013,01,14,06,42,1.70
2013,01,14,06,43,1.70
2013,01,14,06,44,1.70
2013,01,14,06,45,1.70
2013,01,14,06,46,1.70
2013,01,14,06,47,1.80
2013,01,14,06,48,1.80
2013,01,14,06,49,1.80
2013,01,14,06,50,1.80
2013,01,14,06,51,1.80
2013,01,14,06,52,1.80
2013,01,14,06,53,1.80
2013,01,14,06,54,1.80
2013,01,14,06,55,1.80
2013,01,14,06,56,1.80
2013,01,14,06,57,1.80
2013,01,14,06,58,1.80
2013,01,14,06,59,1.80
2013,01,14,07,00,1.80
2013,01,14,07,01,1.80
2013,01,14,07,02,1.80
2013,01,14,07,03,1.80
2013,01,14,07,04,1.80
2013,01,14,07,05,1.80
2013,01,14,07,06,1.80
2013,01,14,07,07,1.80
2013,01,14,07,08,1.80
2013,01,14,07,09,1.80
2013,01,14,07,10,1.80
2013,01,14,07,11,1.80
2013,01,14,07,12,1.80
2013,01,14,07,13,1.80
2013,01,14,07,14,1.80
2013,01,14,07,15,1.80
2013,01,14,07,16,1.80
2013,01,14,07,17,1.80
2013,01,14,07,18,1.80
2013,01,14,07,19,1.80
2013,01,14,07,20,1.80
2013,01,14,07,21,1.80
2013,01,14,07,22,1.80
2013,01,14,07,23,1.80
2013,01,14,07,24,1.80
2013,01,14,07,25,1.80
2013,01,14,07,26,1.80
2013,01,14,07,27,1.80
2013,01,14,07,28,1.80
2013,01,14,07,29,1.80
2013,01,14,07,30,1.80
2013,01,14,07,31,1.80
2013,01,14,07,32,1.70
2013,01,14,07,33,1.70
2013,01,14,07,34,1.70
2013,01,14,07,35,1.70
2013,01,14,07,36,1.70
2013,01,14,07,37,1.60
2013,01,14,07,38,1.60
2013,01,14,07,39,1.60
2013,01,14,07,40,1.60
2013,01,14,07,41,1.60
2013,01,14,07,42,1.60
2013,01,14,07,43,1.60
2013,01,14,07,44,1.60
2013,01,14,07,45,1.60
2013,01,14,07,46,1.60
2013,01,14,07,47,1.70
2013,01,14,07,48,1.70
2013,01,14,07,49,1.70
2013,01,14,07,50,1.70
2013,01,14,07,51,1.70
2013,01,14,07,52,1.70
2013,01,14,07,53,1.70
2013,01,14,07,54,1.70
2013,01,14,07,55,1.70
2013,01,14,07,56,1.70
2013,01,14,07,57,1.70
2013,01,14,07,58,1.70
2013,01,14,07,59,1.80
2013,01,14,08,00,1.80
2013,01,14,08,01,1.80
2013,01,14,08,02,1.80
2013,01,14,08,03,1.80
2013,01,14,08,04,1.80
2013,01,14,08,05,1.80
2013,01,14,08,06,1.80
2013,01,14,08,07,1.80
2013,01,14,08,08,1.80
2013,01,14,08,09,1.80
2013,01,14,08,10,1.80
2013,01,14,08,11,1.80
2013,01,14,08,12,1.80
2013,01,14,08,13,1.80
2013,01,14,08,14,1.80
2013,01,14,08,15,1.80
2013,01,14,08,16,1.80
2013,01,14,08,17,1.90
2013,01,14,08,18,1.90
2013,01,14,08,19,1.90
2013,01,14,08,20,1.90
2013,01,14,08,21,1.90
2013,01,14,08,22,1.90
2013,01,14,08,23,1.90
2013,01,14,08,24,2.00
2013,01,14,08,25,2.00
2013,01,14,08,26,2.00
2013,01,14,08,27,2.00
2013,01,14,08,28,2.00
2013,01,14,08,29,2.00
2013,01,14,08,30,2.00
2013,01,14,08,31,2.00
2013,01,14,08,32,2.10
2013,01,14,08,33,2.10
2013,01,14,08,34,2.10
2013,01,14,08,35,2.10
2013,01,14,08,36,2.10
2013,01,14,08,37,2.10
2013,01,14,08,38,2.10
2013,01,14,08,39,2.20
2013,01,14,08,40,2.20
2013,01,14,08,41,2.20
2013,01,14,08,42,2.20
2013,01,14,08,43,2.20
2013,01,14,08,44,2.20
2013,01,14,08,45,2.20
2013,01,14,08,46,2.20
2013,01,14,08,47,2.20
2013,01,14,08,48,2.20
2013,01,14,08,49,2.20
2013,01,14,08,50,2.20
2013,01,14,08,51,2.20
2013,01,14,08,52,2.20
2013,01,14,08,53,2.20
2013,01,14,08,54,2.20
2013,01,14,08,55,2.20
2013,01,14,08,56,2.20
2013,01,14,08,57,2.10
2013,01,14,08,58,2.10
2013,01,14,08,59,2.10
2013,01,14,09,00,2.00
2013,01,14,09,01,2.00
2013,01,14,09,02,2.00
2013,01,14,09,03,2.00
2013,01,14,09,04,2.00
2013,01,14,09,05,2.00
2013,01,14,09,06,2.00
2013,01,14,09,07,2.00
2013,01,14,09,08,2.00
2013,01,14,09,09,2.00
2013,01,14,09,10,2.10
2013,01,14,09,11,2.10
2013,01,14,09,12,2.10
2013,01,14,09,13,2.20
2013,01,14,09,14,2.20
2013,01,14,09,15,2.20
2013,01,14,09,16,2.20
2013,01,14,09,17,2.20
2013,01,14,09,18,2.30
2013,01,14,09,19,2.30
2013,01,14,09,20,2.30
2013,01,14,09,21,2.30
2013,01,14,09,22,2.30
2013,01,14,09,23,2.40
2013,01,14,09,24,2.40
2013,01,14,09,25,2.40
2013,01,14,09,26,2.40
2013,01,14,09,27,2.40
2013,01,14,09,28,2.40
2013,01,14,09,29,2.40
2013,01,14,09,30,2.40
2013,01,14,09,31,2.40
2013,01,14,09,32,2.40
2013,01,14,09,33,2.50
2013,01,14,09,34,2.50
2013,01,14,09,35,2.50
2013,01,14,09,36,2.50
2013,01,14,09,37,2.50
2013,01,14,09,38,2.50
2013,01,14,09,39,2.50
2013,01,14,09,40,2.50
2013,01,14,09,41,2.60
2013,01,14,09,42,2.60
2013,01,14,09,43,2.60
2013,01,14,09,44,2.60
2013,01,14,09,45,2.70
2013,01,14,09,46,2.70
2013,01,14,09,47,2.70
2013,01,14,09,48,2.70
2013,01,14,09,49,2.70
2013,01,14,09,50,2.70
2013,01,14,09,51,2.80
2013,01,14,09,52,2.80
2013,01,14,09,53,2.90
2013,01,14,09,54,2.90
2013,01,14,09,55,2.90
2013,01,14,09,56,2.90
2013,01,14,09,57,2.90
2013,01,14,09,58,2.90
2013,01,14,09,59,2.90
2013,01,14,10,00,2.90
2013,01,14,10,01,2.90
2013,01,14,10,02,2.90
2013,01,14,10,03,2.90
2013,01,14,10,04,2.90
2013,01,14,10,05,2.90
2013,01,14,10,06,2.90
2013,01,14,10,07,2.90
2013,01,14,10,08,2.90
2013,01,14,10,09,2.90
2013,01,14,10,10,2.90
2013,01,14,10,11,2.90
2013,01,14,10,12,2.90
2013,01,14,10,13,2.90
2013,01,14,10,14,2.90
2013,01,14,10,15,2.90
2013,01,14,10,16,2.90
2013,01,14,10,17,2.90
2013,01,14,10,18,2.90
2013,01,14,10,19,2.90
2013,01,14,10,20,3.00
2013,01,14,10,21,3.10
2013,01,14,10,22,3.10
2013,01,14,10,23,3.10
2013,01,14,10,24,3.10
2013,01,14,10,25,3.10
2013,01,14,10,26,3.10
2013,01,14,10,27,3.20
2013,01,14,10,28,3.20
2013,01,14,10,29,3.20
2013,01,14,10,30,3.20
2013,01,14,10,31,3.20
2013,01,14,10,32,3.20
2013,01,14,10,33,3.20
2013,01,14,10,34,3.20
2013,01,14,10,35,3.20
2013,01,14,10,36,3.30
2013,01,14,10,37,3.30
2013,01,14,10,38,3.30
2013,01,14,10,39,3.30
2013,01,14,10,40,3.30
2013,01,14,10,41,3.30
2013,01,14,10,42,3.30
2013,01,14,10,43,3.30
2013,01,14,10,44,3.30
2013,01,14,10,45,3.30
2013,01,14,10,46,3.30
2013,01,14,10,47,3.40
2013,01,14,10,48,3.40
2013,01,14,10,49,3.40
2013,01,14,10,50,3.50
2013,01,14,10,51,3.50
2013,01,14,10,52,3.50
2013,01,14,10,53,3.60
2013,01,14,10,54,3.60
2013,01,14,10,55,3.60
2013,01,14,10,56,3.70
2013,01,14,10,57,3.70
2013,01,14,10,58,3.80
2013,01,14,10,59,3.80
2013,01,14,11,00,3.80
2013,01,14,11,01,3.80
2013,01,14,11,02,3.80
2013,01,14,11,03,3.80
2013,01,14,11,04,3.80
2013,01,14,11,05,3.80
2013,01,14,11,06,3.80
2013,01,14,11,07,3.80
2013,01,14,11,08,3.90
2013,01,14,11,09,3.90
2013,01,14,11,10,3.90
2013,01,14,11,11,3.90
2013,01,14,11,12,4.00
2013,01,14,11,13,4.00
2013,01,14,11,14,4.00
2013,01,14,11,15,4.00
2013,01,14,11,16,4.00
2013,01,14,11,17,4.00
2013,01,14,11,18,4.00
2013,01,14,11,19,4.00
2013,01,14,11,20,4.00
2013,01,14,11,21,4.10
2013,01,14,11,22,4.00
2013,01,14,11,23,4.00
2013,01,14,11,24,4.00
2013,01,14,11,25,4.00
2013,01,14,11,26,4.00
2013,01,14,11,27,4.00
2013,01,14,11,28,4.00
2013,01,14,11,29,4.00
2013,01,14,11,30,4.00
2013,01,14,11,31,4.10
2013,01,14,11,32,4.10
2013,01,14,11,33,4.10
2013,01,14,11,34,4.10
2013,01,14,11,35,4.10
2013,01,14,11,36,4.10
2013,01,14,11,37,4.10
2013,01,14,11,38,4.10
2013,01,14,11,39,4.00
2013,01,14,11,40,4.00
2013,01,14,11,41,4.00
2013,01,14,11,42,4.00
2013,01,14,11,43,4.00
2013,01,14,11,44,4.00
2013,01,14,11,45,4.00
2013,01,14,11,46,4.10
2013,01,14,11,47,4.10
2013,01,14,11,48,4.10
2013,01,14,11,49,4.10
2013,01,14,11,50,4.10
2013,01,14,11,51,4.10
2013,01,14,11,52,4.10
2013,01,14,11,53,4.10
2013,01,14,11,54,4.10
2013,01,14,11,55,4.10
2013,01,14,11,56,4.20
2013,01,14,11,57,4.20
2013,01,14,11,58,4.20
2013,01,14,11,59,4.20
2013,01,14,12,00,4.20
2013,01,14,12,01,4.20
2013,01,14,12,02,4.20
2013,01,14,12,03,4.20
2013,01,14,12,04,4.20
2013,01,14,12,05,4.20
2013,01,14,12,06,4.20
2013,01,14,12,07,4.20
2013,01,14,12,08,4.20
2013,01,14,12,09,4.20
2013,01,14,12,10,4.30
2013,01,14,12,11,4.30
2013,01,14,12,12,4.30
2013,01,14,12,13,4.30
2013,01,14,12,14,4.30
2013,01,14,12,15,4.30
2013,01,14,12,16,4.30
2013,01,14,12,17,4.30
2013,01,14,12,18,4.30
2013,01,14,12,19,4.30
2013,01,14,12,20,4.30
2013,01,14,12,21,4.30
2013,01,14,12,22,4.30
2013,01,14,12,23,4.30
2013,01,14,12,24,4.40
2013,01,14,12,25,4.40
2013,01,14,12,26,4.40
2013,01,14,12,27,4.40
2013,01,14,12,28,4.40
2013,01,14,12,29,4.40
2013,01,14,12,30,4.40
2013,01,14,12,31,4.40
2013,01,14,12,32,4.50
2013,01,14,12,33,4.50
2013,01,14,12,34,4.50
2013,01,14,12,35,4.50
2013,01,14,12,36,4.50
2013,01,14,12,37,4.60
2013,01,14,12,38,4.60
2013,01,14,12,39,4.60
2013,01,14,12,40,4.60
2013,01,14,12,41,4.60
2013,01,14,12,42,4.60
2013,01,14,12,43,4.60
2013,01,14,12,44,4.60
2013,01,14,12,45,4.60
2013,01,14,12,46,4.60
2013,01,14,12,47,4.60
2013,01,14,12,48,4.60
2013,01,14,12,49,4.70
2013,01,14,12,50,4.70
2013,01,14,12,51,4.60
2013,01,14,12,52,4.60
2013,01,14,12,53,4.60
2013,01,14,12,54,4.60
2013,01,14,12,55,4.60
2013,01,14,12,56,4.70
2013,01,14,12,57,4.70
2013,01,14,12,58,4.70
2013,01,14,12,59,4.70
2013,01,14,13,00,4.70
2013,01,14,13,01,4.70
2013,01,14,13,02,4.80
2013,01,14,13,03,4.80
2013,01,14,13,04,4.80
2013,01,14,13,05,4.90
2013,01,14,13,06,4.90
2013,01,14,13,07,4.90
2013,01,14,13,08,4.90
2013,01,14,13,09,4.90
2013,01,14,13,10,4.90
2013,01,14,13,11,5.10
2013,01,14,13,12,4.90
2013,01,14,13,13,4.90
2013,01,14,13,14,4.90
2013,01,14,13,15,4.90
2013,01,14,13,16,4.90
2013,01,14,13,17,4.90
2013,01,14,13,18,5.00
2013,01,14,13,19,5.10
2013,01,14,13,20,5.10
2013,01,14,13,21,5.10
2013,01,14,13,22,5.10
2013,01,14,13,23,5.10
2013,01,14,13,24,5.10
2013,01,14,13,25,5.10
2013,01,14,13,26,5.10
2013,01,14,13,27,5.10
2013,01,14,13,28,5.10
2013,01,14,13,29,5.10
2013,01,14,13,30,5.10
2013,01,14,13,31,5.10
2013,01,14,13,32,5.10
2013,01,14,13,33,5.10
2013,01,14,13,34,5.10
2013,01,14,13,35,5.10
2013,01,14,13,36,5.10
2013,01,14,13,37,5.10
2013,01,14,13,38,5.10
2013,01,14,13,39,5.10
2013,01,14,13,40,5.10
2013,01,14,13,41,5.10
2013,01,14,13,42,5.10
2013,01,14,13,43,5.10
2013,01,14,13,44,5.10
2013,01,14,13,45,5.10
2013,01,14,13,46,5.10
2013,01,14,13,47,5.10
2013,01,14,13,48,5.10
2013,01,14,13,49,5.20
2013,01,14,13,50,5.20
2013,01,14,13,51,5.20
2013,01,14,13,52,5.20
2013,01,14,13,53,5.20
2013,01,14,13,54,5.20
2013,01,14,13,55,5.20
2013,01,14,13,56,5.20
2013,01,14,13,57,5.30
2013,01,14,13,58,5.30
2013,01,14,13,59,5.30
2013,01,14,14,00,5.30
2013,01,14,14,01,5.30
2013,01,14,14,02,5.30
2013,01,14,14,03,5.30
2013,01,14,14,04,5.30
2013,01,14,14,05,5.20
2013,01,14,14,06,5.20
2013,01,14,14,07,5.10
2013,01,14,14,08,5.10
2013,01,14,14,09,5.10
2013,01,14,14,10,5.00
2013,01,14,14,11,4.90
2013,01,14,14,12,4.90
2013,01,14,14,13,4.90
2013,01,14,14,14,4.90
2013,01,14,14,15,4.80
2013,01,14,14,16,4.80
2013,01,14,14,17,4.70
2013,01,14,14,18,4.70
2013,01,14,14,19,4.70
2013,01,14,14,20,4.60
2013,01,14,14,21,4.60
2013,01,14,14,22,4.60
2013,01,14,14,23,4.60
2013,01,14,14,24,4.60
2013,01,14,14,25,4.50
2013,01,14,14,26,4.50
2013,01,14,14,27,4.50
2013,01,14,14,28,4.50
2013,01,14,14,29,4.50
2013,01,14,14,30,4.50
2013,01,14,14,31,4.50
2013,01,14,14,32,4.50
2013,01,14,14,33,4.50
2013,01,14,14,34,4.50
2013,01,14,14,35,4.50
2013,01,14,14,36,4.50
2013,01,14,14,37,4.50
2013,01,14,14,38,4.50
2013,01,14,14,39,4.50
2013,01,14,14,40,4.50
2013,01,14,14,41,4.50
2013,01,14,14,42,4.50
2013,01,14,14,43,4.50
2013,01,14,14,44,4.50
2013,01,14,14,45,4.50
2013,01,14,14,46,4.50
2013,01,14,14,47,4.50
2013,01,14,14,48,4.50
2013,01,14,14,49,4.40
2013,01,14,14,50,4.40
2013,01,14,14,51,4.40
2013,01,14,14,52,4.40
2013,01,14,14,53,4.40
2013,01,14,14,54,4.40
2013,01,14,14,55,4.40
2013,01,14,14,56,4.40
2013,01,14,14,57,4.40
2013,01,14,14,58,4.40
2013,01,14,14,59,4.40
2013,01,14,15,00,4.40
2013,01,14,15,01,4.40
2013,01,14,15,02,4.40
2013,01,14,15,03,4.40
2013,01,14,15,04,4.40
2013,01,14,15,05,4.40
2013,01,14,15,06,4.40
2013,01,14,15,07,4.50
2013,01,14,15,08,4.50
2013,01,14,15,09,4.50
2013,01,14,15,10,4.50
2013,01,14,15,11,4.40
2013,01,14,15,12,4.40
2013,01,14,15,13,4.40
2013,01,14,15,14,4.40
2013,01,14,15,15,4.40
2013,01,14,15,16,4.40
2013,01,14,15,17,4.40
2013,01,14,15,18,4.40
2013,01,14,15,19,4.40
2013,01,14,15,20,4.40
2013,01,14,15,21,4.40
2013,01,14,15,22,4.40
2013,01,14,15,23,4.40
2013,01,14,15,24,4.40
2013,01,14,15,25,4.40
2013,01,14,15,26,4.40
2013,01,14,15,27,4.40
2013,01,14,15,28,4.40
2013,01,14,15,29,4.40
2013,01,14,15,30,4.40
2013,01,14,15,31,4.40
2013,01,14,15,32,4.40
2013,01,14,15,33,4.40
2013,01,14,15,34,4.40
2013,01,14,15,35,4.40
2013,01,14,15,36,4.40
2013,01,14,15,37,4.40
2013,01,14,15,38,4.40
2013,01,14,15,39,4.50
2013,01,14,15,40,4.50
2013,01,14,15,41,4.40
2013,01,14,15,42,4.40
2013,01,14,15,43,4.40
2013,01,14,15,44,4.40
2013,01,14,15,45,4.40
2013,01,14,15,46,4.30
2013,01,14,15,47,4.30
2013,01,14,15,48,4.30
2013,01,14,15,49,4.30
2013,01,14,15,50,4.30
2013,01,14,15,51,4.30
2013,01,14,15,52,4.30
2013,01,14,15,53,4.20
2013,01,14,15,54,4.20
2013,01,14,15,55,4.20
2013,01,14,15,56,4.20
2013,01,14,15,57,4.20
2013,01,14,15,58,4.20
2013,01,14,15,59,4.20
2013,01,14,16,00,4.20
2013,01,14,16,01,4.20
2013,01,14,16,02,4.20
2013,01,14,16,03,4.20
2013,01,14,16,04,4.20
2013,01,14,16,05,4.20
2013,01,14,16,06,4.20
2013,01,14,16,07,4.20
2013,01,14,16,08,4.20
2013,01,14,16,09,4.20
2013,01,14,16,10,4.20
2013,01,14,16,11,4.10
2013,01,14,16,12,4.10
2013,01,14,16,13,4.10
2013,01,14,16,14,4.10
2013,01,14,16,15,4.10
2013,01,14,16,16,4.10
2013,01,14,16,17,4.10
2013,01,14,16,18,4.10
2013,01,14,16,19,4.10
2013,01,14,16,20,4.10
2013,01,14,16,21,4.10
2013,01,14,16,22,4.10
2013,01,14,16,23,4.10
2013,01,14,16,24,4.10
2013,01,14,16,25,4.10
2013,01,14,16,26,4.10
2013,01,14,16,27,4.10
2013,01,14,16,28,4.10
2013,01,14,16,29,4.10
2013,01,14,16,30,4.10
2013,01,14,16,31,4.10
2013,01,14,16,32,4.10
2013,01,14,16,33,4.10
2013,01,14,16,34,4.10
2013,01,14,16,35,4.00
2013,01,14,16,36,4.00
2013,01,14,16,37,4.00
2013,01,14,16,38,4.00
2013,01,14,16,39,4.00
2013,01,14,16,40,4.00
2013,01,14,16,41,4.00
2013,01,14,16,42,4.00
2013,01,14,16,43,3.90
2013,01,14,16,44,3.90
2013,01,14,16,45,3.90
2013,01,14,16,46,3.90
2013,01,14,16,47,3.90
2013,01,14,16,48,3.90
2013,01,14,16,49,3.90
2013,01,14,16,50,3.90
2013,01,14,16,51,3.90
2013,01,14,16,52,3.90
2013,01,14,16,53,3.90
2013,01,14,16,54,3.90
2013,01,14,16,55,3.80
2013,01,14,16,56,3.80
2013,01,14,16,57,3.80
2013,01,14,16,58,3.80
2013,01,14,16,59,3.80
2013,01,14,17,00,3.80
2013,01,14,17,01,3.80
2013,01,14,17,02,3.80
2013,01,14,17,03,3.80
2013,01,14,17,04,3.80
2013,01,14,17,05,3.80
2013,01,14,17,06,3.80
2013,01,14,17,07,3.80
2013,01,14,17,08,3.80
2013,01,14,17,09,3.80
2013,01,14,17,10,3.80
2013,01,14,17,11,3.80
2013,01,14,17,12,3.80
2013,01,14,17,13,3.80
2013,01,14,17,14,3.80
2013,01,14,17,15,3.80
2013,01,14,17,16,3.80
2013,01,14,17,17,3.80
2013,01,14,17,18,3.80
2013,01,14,17,19,3.70
2013,01,14,17,20,3.70
2013,01,14,17,21,3.70
2013,01,14,17,22,3.70
2013,01,14,17,23,3.70
2013,01,14,17,24,3.70
2013,01,14,17,25,3.70
2013,01,14,17,26,3.70
2013,01,14,17,27,3.70
2013,01,14,17,28,3.70
2013,01,14,17,29,3.70
2013,01,14,17,30,3.70
2013,01,14,17,31,3.70
2013,01,14,17,32,3.70
2013,01,14,17,33,3.70
2013,01,14,17,34,3.70
2013,01,14,17,35,3.70
2013,01,14,17,36,3.70
2013,01,14,17,37,3.70
2013,01,14,17,38,3.70
2013,01,14,17,39,3.70
2013,01,14,17,40,3.70
2013,01,14,17,41,3.70
2013,01,14,17,42,3.70
2013,01,14,17,43,3.70
2013,01,14,17,44,3.70
2013,01,14,17,45,3.70
2013,01,14,17,46,3.70
2013,01,14,17,47,3.70
2013,01,14,17,48,3.70
2013,01,14,17,49,3.70
2013,01,14,17,50,3.70
2013,01,14,17,51,3.70
2013,01,14,17,52,3.70
2013,01,14,17,53,3.70
2013,01,14,17,54,3.70
2013,01,14,17,55,3.70
2013,01,14,17,56,3.70
2013,01,14,17,57,3.70
2013,01,14,17,58,3.70
2013,01,14,17,59,3.70
2013,01,14,18,00,3.70
2013,01,14,18,01,3.70
2013,01,14,18,02,3.60
2013,01,14,18,03,3.60
2013,01,14,18,04,3.60
2013,01,14,18,05,3.60
2013,01,14,18,06,3.60